User: anonymous   Login
Location: Göttingen
(51.5413°N, 9.9158°E)
Time: 11:30:31
(UTC+02:00)
Language:

First-Move - Orbit

View from above orbital plane
View from above orbital plane
View from above satellite
View from above satellite

Ground track
Ground track

The orbit data is extracted from the following two-line orbital elements,

1 39439U 13066Z   22177.91267292  .00003161  00000-0  37026-3 0  9993
2 39439  97.6366 151.3598 0063215  10.6662 349.5877 14.84281095463454
Epoch (UTC): 26 June 2022 21:54:14
Eccentricity: 0.0063215
inclination: 97.6366°
perigee height: 571 km
apogee height: 660 km
right ascension of ascending node: 151.3598°
argument of perigee: 10.6662°
revolutions per day: 14.84281095
mean anomaly at epoch: 349.5877°
orbit number at epoch: 46345

The dashed part of the orbit path shows where the satellite is in the earth's shadow,  

DLR